| time (UTC) | temp F | wind direction | speed knots | gust knots | rain 1hr in | rain 24hr in | rain mn in | humidity % | barometer mb |
| 20260510233831 | 41 | 101 | 0.0 | 0.0 | 0.00 | 0.00 | 0.00 | 79 | 1013.5 |
| 20260510232851 | 41 | 101 | 0.0 | 0.0 | 0.00 | 0.00 | 0.00 | 78 | 1013.6 |
| 20260510230659 | 42 | 101 | 0.0 | 0.0 | 0.00 | 0.00 | 0.00 | 77 | 1014.0 |
| 20260510225649 | 42 | 101 | 0.0 | 0.0 | 0.00 | 0.00 | 0.00 | 77 | 1014.1 |
| 20260510222343 | 43 | 101 | 0.0 | 0.0 | 0.00 | 0.00 | 0.00 | 74 | 1014.6 |
| 20260510221405 | 43 | 99 | 0.0 | 0.0 | 0.00 | 0.00 | 0.00 | 72 | 1014.7 |
| 20260510220353 | 44 | 99 | 0.0 | 0.0 | 0.00 | 0.00 | 0.00 | 71 | 1014.8 |
| 20260510215342 | 44 | 99 | 0.0 | 0.0 | 0.00 | 0.00 | 0.00 | 70 | 1015.0 |
| 20260510214329 | 45 | 99 | 0.0 | 0.0 | 0.00 | 0.00 | 0.00 | 70 | 1015.2 |
| 20260510213313 | 46 | 99 | 0.0 | 0.0 | 0.00 | 0.00 | 0.00 | 68 | 1015.5 |
| 20260510212308 | 46 | 99 | 0.0 | 0.0 | 0.00 | 0.00 | 0.00 | 67 | 1015.6 |
| 20260510211310 | 46 | 99 | 0.0 | 0.0 | 0.00 | 0.00 | 0.00 | 67 | 1015.6 |
| 20260510210305 | 47 | 99 | 0.0 | 0.0 | 0.00 | 0.00 | 0.00 | 67 | 1015.6 |
| 20260510205325 | 47 | 99 | 0.0 | 0.0 | 0.00 | 0.00 | 0.00 | 66 | 1015.7 |
| 20260510204252 | 47 | 99 | 0.0 | 0.0 | 0.00 | 0.00 | 0.00 | 66 | 1015.8 |
| 20260510203309 | 47 | 99 | 0.0 | 0.0 | 0.00 | 0.00 | 0.00 | 69 | 1015.8 |
| 20260510202301 | 47 | 99 | 0.0 | 0.0 | 0.00 | 0.00 | 0.00 | 68 | 1015.8 |
| 20260510201302 | 47 | 99 | 0.0 | 0.0 | 0.00 | 0.00 | 0.00 | 65 | 1015.9 |
| 20260510195118 | 47 | 99 | 0.0 | 0.0 | 0.00 | 0.00 | 0.00 | 66 | 1016.1 |
| 20260510193015 | 48 | 99 | 0.0 | 0.0 | 0.00 | 0.00 | 0.00 | 65 | 1016.3 |
| 20260510192014 | 48 | 99 | 0.0 | 0.0 | 0.00 | 0.00 | 0.00 | 66 | 1016.3 |
| 20260510191028 | 49 | 99 | 0.0 | 0.0 | 0.00 | 0.00 | 0.00 | 65 | 1016.3 |
| 20260510190025 | 50 | 99 | 0.0 | 0.0 | 0.00 | 0.00 | 0.00 | 64 | 1016.4 |
| 20260510184954 | 51 | 99 | 0.0 | 0.0 | 0.00 | 0.00 | 0.00 | 62 | 1016.5 |
| 20260510183925 | 52 | 90 | 0.0 | 0.0 | 0.00 | 0.00 | 0.00 | 59 | 1016.5 |
| 20260510182854 | 52 | 90 | 0.0 | 0.0 | 0.00 | 0.00 | 0.00 | 58 | 1016.6 |
| 20260510181847 | 53 | 81 | 0.0 | 0.9 | 0.00 | 0.00 | 0.00 | 56 | 1016.7 |
| 20260510174521 | 56 | 3 | 0.0 | 2.6 | 0.00 | 0.00 | 0.00 | 50 | 1017.1 |
| 20260510173511 | 56 | 84 | 0.0 | 0.0 | 0.00 | 0.00 | 0.00 | 50 | 1017.2 |
| 20260510172502 | 56 | 75 | 0.0 | 2.6 | 0.00 | 0.00 | 0.00 | 48 | 1017.3 |
| 20260510171513 | 56 | 314 | 0.0 | 0.0 | 0.00 | 0.00 | 0.00 | 49 | 1017.4 |
| 20260510170505 | 55 | 75 | 0.0 | 0.9 | 0.00 | 0.00 | 0.00 | 51 | 1017.5 |
| 20260510163120 | 55 | 70 | 0.9 | 5.2 | 0.00 | 0.00 | 0.00 | 50 | 1017.8 |
| 20260510162120 | 56 | 65 | 0.9 | 6.1 | 0.00 | 0.00 | 0.00 | 49 | 1018.0 |
| 20260510161108 | 56 | 58 | 0.9 | 6.1 | 0.00 | 0.00 | 0.00 | 49 | 1018.2 |
| 20260510160115 | 55 | 15 | 0.0 | 2.6 | 0.00 | 0.00 | 0.00 | 51 | 1018.3 |
| 20260510154033 | 56 | 359 | 0.9 | 5.2 | 0.00 | 0.00 | 0.00 | 48 | 1018.6 |
| 20260510153006 | 56 | 70 | 0.9 | 3.5 | 0.00 | 0.00 | 0.00 | 49 | 1018.8 |
| 20260510150816 | 56 | 89 | 2.6 | 7.8 | 0.00 | 0.00 | 0.00 | 48 | 1019.1 |
| 20260510145838 | 57 | 84 | 0.0 | 4.3 | 0.00 | 0.00 | 0.00 | 47 | 1019.0 |
| 20260510144841 | 56 | 304 | 0.0 | 7.8 | 0.00 | 0.00 | 0.00 | 49 | 1019.3 |
| 20260510143821 | 56 | 82 | 1.7 | 7.8 | 0.00 | 0.00 | 0.00 | 48 | 1019.4 |
| 20260510140431 | 56 | 84 | 2.6 | 7.8 | 0.00 | 0.00 | 0.00 | 48 | 1019.9 |
| 20260510135419 | 57 | 82 | 0.9 | 10.4 | 0.00 | 0.00 | 0.00 | 47 | 1019.9 |
| 20260510134441 | 57 | 352 | 1.7 | 10.4 | 0.00 | 0.00 | 0.00 | 48 | 1020.0 |
| 20260510133459 | 57 | 57 | 0.9 | 7.8 | 0.00 | 0.00 | 0.00 | 45 | 1020.0 |
| 20260510132506 | 56 | 77 | 1.7 | 6.1 | 0.00 | 0.00 | 0.00 | 49 | 1020.1 |
| 20260510131519 | 55 | 70 | 2.6 | 7.8 | 0.00 | 0.00 | 0.00 | 49 | 1020.2 |
| 20260510130512 | 56 | 54 | 2.6 | 9.6 | 0.00 | 0.00 | 0.00 | 49 | 1020.3 |
| 20260510125517 | 55 | 83 | 2.6 | 9.6 | 0.00 | 0.00 | 0.00 | 50 | 1020.4 |
| 20260510124509 | 56 | 117 | 2.6 | 8.7 | 0.00 | 0.00 | 0.00 | 49 | 1020.5 |
| 20260510122409 | 54 | 359 | 2.6 | 8.7 | 0.00 | 0.00 | 0.00 | 50 | 1020.7 |
| 20260510121343 | 55 | 27 | 1.7 | 8.7 | 0.00 | 0.00 | 0.00 | 50 | 1020.8 |
| 20260510115240 | 55 | 124 | 2.6 | 7.8 | 0.00 | 0.00 | 0.00 | 51 | 1021.0 |
| 20260510114258 | 54 | 7 | 2.6 | 7.8 | 0.00 | 0.00 | 0.00 | 51 | 1021.1 |
| 20260510113241 | 54 | 347 | 2.6 | 10.4 | 0.00 | 0.00 | 0.00 | 52 | 1021.2 |
| 20260510112305 | 54 | 58 | 2.6 | 10.4 | 0.00 | 0.00 | 0.00 | 54 | 1021.3 |
| 20260510111239 | 53 | 347 | 1.7 | 7.8 | 0.00 | 0.00 | 0.00 | 53 | 1021.5 |
| 20260510110257 | 54 | 8 | 1.7 | 7.0 | 0.00 | 0.00 | 0.00 | 56 | 1021.7 |
| 20260510105227 | 54 | 88 | 1.7 | 9.6 | 0.00 | 0.00 | 0.00 | 55 | 1021.8 |
| 20260510104220 | 54 | 5 | 2.6 | 9.6 | 0.00 | 0.00 | 0.00 | 57 | 1021.9 |
| 20260510103151 | 54 | 75 | 2.6 | 7.8 | 0.00 | 0.00 | 0.00 | 54 | 1021.9 |
| 20260510102149 | 54 | 98 | 2.6 | 7.8 | 0.00 | 0.00 | 0.00 | 58 | 1022.0 |
| 20260510101201 | 54 | 352 | 2.6 | 8.7 | 0.00 | 0.00 | 0.00 | 57 | 1022.1 |
| 20260510100145 | 54 | 60 | 2.6 | 8.7 | 0.00 | 0.00 | 0.00 | 57 | 1022.3 |
| 20260510095208 | 53 | 63 | 2.6 | 7.8 | 0.00 | 0.00 | 0.00 | 56 | 1022.3 |
| 20260510094139 | 52 | 70 | 2.6 | 8.7 | 0.00 | 0.00 | 0.00 | 60 | 1022.5 |
| 20260510091939 | 52 | 333 | 1.7 | 7.0 | 0.00 | 0.00 | 0.00 | 61 | 1022.7 |
| 20260510090938 | 52 | 354 | 2.6 | 9.6 | 0.00 | 0.00 | 0.00 | 60 | 1022.6 |
| 20260510085944 | 53 | 103 | 2.6 | 9.6 | 0.00 | 0.00 | 0.00 | 58 | 1022.6 |
| 20260510082722 | 51 | 96 | 1.7 | 7.0 | 0.00 | 0.00 | 0.00 | 66 | 1022.9 |
| 20260510081732 | 50 | 77 | 1.7 | 6.1 | 0.00 | 0.00 | 0.00 | 66 | 1022.8 |
| 20260510075701 | 50 | 310 | 1.7 | 8.7 | 0.00 | 0.00 | 0.00 | 67 | 1022.8 |
| 20260510074704 | 51 | 68 | 1.7 | 8.7 | 0.00 | 0.00 | 0.00 | 66 | 1022.8 |
| 20260510073648 | 50 | 94 | 2.6 | 7.8 | 0.00 | 0.00 | 0.00 | 68 | 1022.8 |
| 20260510072629 | 50 | 347 | 1.7 | 7.0 | 0.00 | 0.00 | 0.00 | 70 | 1022.8 |
| 20260510071624 | 49 | 357 | 1.7 | 7.8 | 0.00 | 0.00 | 0.00 | 71 | 1022.8 |
| 20260510070551 | 49 | 72 | 1.7 | 7.8 | 0.00 | 0.00 | 0.00 | 72 | 1022.7 |
| 20260510065541 | 48 | 21 | 1.7 | 7.8 | 0.00 | 0.00 | 0.00 | 73 | 1022.8 |
| 20260510063408 | 47 | 325 | 0.9 | 4.3 | 0.00 | 0.00 | 0.00 | 76 | 1022.8 |
| 20260510062342 | 46 | 6 | 0.9 | 6.1 | 0.00 | 0.00 | 0.00 | 78 | 1022.8 |
| 20260510061336 | 46 | 288 | 1.7 | 6.1 | 0.00 | 0.00 | 0.00 | 77 | 1022.9 |
| 20260510060304 | 46 | 34 | 0.9 | 5.2 | 0.00 | 0.00 | 0.00 | 78 | 1022.7 |
| 20260510055237 | 45 | 126 | 0.9 | 7.8 | 0.00 | 0.00 | 0.00 | 81 | 1022.7 |
| 20260510054233 | 44 | 24 | 0.9 | 7.8 | 0.00 | 0.00 | 0.00 | 82 | 1022.7 |
| 20260510053233 | 44 | 11 | 0.9 | 7.0 | 0.00 | 0.00 | 0.00 | 82 | 1022.7 |
| 20260510052243 | 44 | 355 | 0.9 | 7.0 | 0.00 | 0.00 | 0.00 | 83 | 1022.7 |
| 20260510051234 | 43 | 65 | 0.0 | 5.2 | 0.00 | 0.00 | 0.00 | 83 | 1022.7 |
| 20260510050219 | 43 | 47 | 0.9 | 5.2 | 0.00 | 0.00 | 0.00 | 83 | 1022.7 |
| 20260510045218 | 43 | 44 | 0.9 | 5.2 | 0.00 | 0.00 | 0.00 | 84 | 1022.7 |
| 20260510044145 | 43 | 288 | 0.9 | 5.2 | 0.00 | 0.00 | 0.00 | 84 | 1022.8 |
| 20260510043134 | 43 | 6 | 0.0 | 4.3 | 0.00 | 0.00 | 0.00 | 84 | 1022.8 |
| 20260510042138 | 43 | 281 | 0.0 | 1.7 | 0.00 | 0.00 | 0.00 | 84 | 1022.9 |
| 20260510041108 | 43 | 85 | 0.0 | 3.5 | 0.00 | 0.00 | 0.00 | 83 | 1022.7 |
| 20260510040053 | 43 | 344 | 0.0 | 3.5 | 0.00 | 0.00 | 0.00 | 83 | 1022.9 |
| 20260510035029 | 44 | 92 | 0.9 | 5.2 | 0.00 | 0.00 | 0.00 | 83 | 1022.8 |
| 20260510034000 | 44 | 130 | 0.9 | 5.2 | 0.00 | 0.00 | 0.00 | 82 | 1022.9 |
| 20260510031827 | 46 | 333 | 0.0 | 3.5 | 0.00 | 0.00 | 0.00 | 81 | 1023.1 |
| 20260510030829 | 46 | 56 | 0.9 | 6.1 | 0.00 | 0.00 | 0.00 | 80 | 1023.1 |
| 20260510025831 | 46 | 55 | 2.6 | 7.8 | 0.00 | 0.00 | 0.00 | 79 | 1023.1 |
| 20260510024755 | 46 | 14 | 1.7 | 7.8 | 0.00 | 0.00 | 0.00 | 79 | 1023.1 |
| 20260510023816 | 46 | 90 | 0.9 | 7.0 | 0.00 | 0.00 | 0.00 | 80 | 1023.1 |
| 20260510022816 | 46 | 317 | 1.7 | 7.0 | 0.00 | 0.00 | 0.00 | 81 | 1023.0 |
| 20260510021835 | 46 | 96 | 0.9 | 6.1 | 0.00 | 0.00 | 0.00 | 81 | 1023.0 |
| 20260510020823 | 46 | 346 | 0.9 | 6.1 | 0.00 | 0.00 | 0.00 | 81 | 1023.1 |
| 20260510015759 | 46 | 337 | 0.0 | 5.2 | 0.00 | 0.00 | 0.00 | 82 | 1023.1 |
| 20260510014753 | 47 | 338 | 0.9 | 5.2 | 0.00 | 0.00 | 0.00 | 82 | 1023.0 |
| 20260510011518 | 47 | 37 | 0.9 | 6.1 | 0.00 | 0.00 | 0.00 | 82 | 1023.0 |
| 20260510010458 | 47 | 354 | 0.9 | 6.1 | 0.00 | 0.00 | 0.00 | 82 | 1023.0 |
| 20260510005516 | 47 | 348 | 0.9 | 7.0 | 0.00 | 0.00 | 0.00 | 82 | 1023.0 |
| 20260510004454 | 47 | 26 | 1.7 | 7.8 | 0.00 | 0.00 | 0.00 | 82 | 1023.0 |
| 20260510002319 | 47 | 46 | 0.9 | 6.1 | 0.00 | 0.00 | 0.00 | 83 | 1023.1 |
| 20260510000201 | 47 | 130 | 0.9 | 7.0 | 0.00 | 0.00 | 0.00 | 83 | 1023.1 |
| 20260509235207 | 47 | 326 | 0.9 | 5.2 | 0.00 | 0.00 | 0.00 | 83 | 1023.1 |